GAOFEN-12 03

Last updated on Wed Sep 17 2025 00:02:31 GMT+0000 (Coordinated Universal Time)

1 52912U 22069A 25259.60006292 .00001277 00000+0 17177-3 0 9998 2 52912 97.8554 148.9360 0001256 77.7640 282.3713 14.80924952174153
UTC large
Height (km)
Speed (km/s)
/
Latitude / Longitude
Inclination (degrees)
Orbital Period (minutes)
Azimuth
Elevation
Range (km)
Doppler Factor

Next 0 passes for location: London (51.5072 / 0.1276)

Sorry there are no passes over London.